K9JM Weather Reports


Display with metric or nautical units.
time (UTC)temp
F
wind
direction
speed
MPH
gust
MPH
rain 1hr
in
rain 24hr
in
rain mn
in
humidity
%
barometer
mb
20260506071517 53 0.0 0.0 0.00 0.01 0.00 93 1018.3
20260506061516 53 0.0 0.0 0.00 0.05 0.03 92 1017.9
20260506044516 53 0.0 0.0 0.00 0.10 0.03 92 1017.0
20260506043016 53 0.0 0.0 0.00 0.16 0.03 92 1016.9
20260506041516 53 0.0 0.0 0.00 0.22 0.03 92 1016.7
20260506040016 53 0.0 0.0 0.00 0.32 0.03 92 1016.6
20260506034516 53 0.0 0.0 0.00 0.46 0.03 91 1016.3
20260506033016 53 0.0 0.0 0.00 0.55 0.03 91 1016.0
20260506031516 53 0.0 0.0 0.00 0.63 0.03 91 1015.8
20260506030056 53 0.0 0.0 0.00 0.66 0.03 90 1016.0
20260506024536 54 0.0 0.0 0.00 0.69 0.03 90 1015.8
20260506023016 54 0.0 0.0 0.00 0.77 0.03 90 1015.7
20260506021516 54 0.0 0.0 0.00 0.85 0.03 90 1015.4
20260506020056 54 0.0 0.0 0.00 0.86 0.03 89 1015.4
20260506014516 54 0.0 0.0 0.00 0.86 0.03 90 1015.1
20260506013016 54 0.0 0.0 0.00 0.87 0.03 90 1015.1
20260506011516 54 0.0 0.0 0.00 0.88 0.03 89 1014.9
20260506010015 55 0.0 0.0 0.00 0.90 0.03 89 1015.2
20260506004516 55 0.0 0.0 0.00 0.90 0.03 87 1015.2
20260506003015 55 0.0 0.0 0.00 0.93 0.03 88 1015.1
20260506001516 55 0.0 0.0 0.00 0.98 0.03 88 1015.0
20260506000015 55 0.0 0.0 0.00 1.04 0.03 88 1015.0
20260505234536 54 0.0 0.0 0.00 1.08 0.03 88 1014.5
20260505233055 54 0.0 0.0 0.00 1.08 0.03 89 1014.9
20260505231515 54 0.0 0.0 0.00 1.09 0.03 89 1014.9
20260505230016 54 0.0 0.0 0.00 1.13 0.03 89 1014.8
20260505224516 54 0.0 0.0 0.00 1.14 0.03 90 1014.9
20260505223015 54 0.0 0.0 0.00 1.15 0.03 90 1015.0
20260505221516 54 0.0 0.0 0.00 1.16 0.03 90 1014.9
20260505220016 54 0.0 0.0 0.00 1.19 0.03 89 1015.1
20260505214516 54 0.0 0.0 0.00 1.21 0.03 89 1015.4
20260505213015 53 0.0 0.0 0.00 1.21 0.03 90 1015.3
20260505211516 53 0.0 0.0 0.00 1.22 0.03 91 1015.4
20260505210015 52 0.0 0.0 0.00 1.22 0.03 92 1015.2
20260505204515 52 0.0 0.0 0.00 1.22 0.03 93 1015.1
20260505203015 52 0.0 0.0 0.00 1.23 0.03 92 1015.0
20260505201516 52 0.0 0.0 0.00 1.23 0.03 92 1015.0
20260505200036 52 0.0 0.0 0.00 1.24 0.03 92 1015.1
20260505194516 52 0.0 0.0 0.00 1.24 0.03 92 1015.1
20260505193035 52 0.0 0.0 0.00 1.25 0.03 92 1015.0
20260505191535 52 0.0 0.0 0.00 1.25 0.03 92 1014.9
20260505190015 52 0.0 0.0 0.00 1.25 0.03 92 1014.9
20260505184516 52 0.0 0.0 0.00 1.25 0.03 92 1014.9
20260505183016 52 0.0 0.0 0.00 1.25 0.03 93 1014.9
20260505181516 51 0.0 0.0 0.00 1.25 0.03 94 1014.7
20260505180015 51 0.0 0.0 0.00 1.25 0.03 95 1014.7
20260505174616 51 0.0 0.0 0.00 1.25 0.03 95 1014.7
20260505173015 51 0.0 0.0 0.01 1.25 0.03 96 1014.6
20260505171515 50 0.0 0.0 0.01 1.25 0.03 96 1014.5
20260505170015 50 0.0 0.0 0.01 1.25 0.03 96 1014.4
20260505164515 50 0.0 0.0 0.01 1.25 0.03 96 1014.3
20260505163017 49 0.0 0.0 0.00 1.24 0.02 96 1014.5
20260505161517 50 0.0 0.0 0.00 1.24 0.02 97 1014.4
20260505153017 48 0.0 0.0 0.00 1.24 0.02 96 1014.0
20260505151558 48 0.0 0.0 0.00 1.24 0.02 96 1013.8
20260505124515 47 0.0 0.0 0.00 1.24 0.02 96 1012.9
20260505123017 47 0.0 0.0 0.00 1.24 0.02 96 1012.8
20260505121517 47 0.0 0.0 0.00 1.24 0.02 96 1012.9
20260505120017 47 0.0 0.0 0.00 1.24 0.02 96 1012.8
20260505114517 47 0.0 0.0 0.00 1.24 0.02 96 1013.0
20260505113057 47 0.0 0.0 0.00 1.24 0.02 96 1013.0
20260505111517 47 0.0 0.0 0.00 1.24 0.02 96 1013.1
20260505101537 47 0.0 0.0 0.00 1.24 0.02 96 1013.1
20260505100017 47 0.0 0.0 0.00 1.24 0.02 96 1012.9
20260505094517 47 0.0 0.0 0.00 1.24 0.02 96 1012.9
20260505093016 47 0.0 0.0 0.00 1.24 0.02 96 1013.2
20260505091517 47 0.0 0.0 0.00 1.24 0.02 96 1013.4
20260505090017 47 0.0 0.0 0.00 1.24 0.02 96 1013.3
20260505084517 47 0.0 0.0 0.00 1.24 0.02 96 1013.9
20260505083036 47 0.0 0.0 0.00 1.24 0.02 96 1014.0
20260505081517 47 0.0 0.0 0.00 1.24 0.02 96 1013.9
20260505080017 47 0.0 0.0 0.02 1.24 0.02 96 1014.1
20260505074537 47 0.0 0.0 0.03 1.24 0.02 96 1013.9
20260505073016 47 0.0 0.0 0.04 1.24 0.02 96 1013.6